Location: Bamobli
(6.6379°N, 10.9396°W)
Time: 14:32:46
(UTC+00:00)

ARIANE 44L R/B - Pass Details

Date: 07 June 2020
Orbit: 277 x 28622 km, 7.2° (Epoch: 04 July)

Event Time Altitude Azimuth Distance (km) Brightness Sun altitude
Exits shadow 05:52:39 11° 271° (W) 1,105 3.3 -8.8°
Maximum altitude 05:54:33 80° 358° (N) 277 0.9 -8.4°
Drops below altitude 10° 05:56:44 10° 86° (E) 1,265 5.5 -7.9°
Sets 05:59:18 0° 88° (E) 2,683 7.3 -7.3°
